Regional Weather Roundup
Issued by NWS

Home | Current Version | Previous Version | Text Only | Print | Product List | Glossary On
Versions: 1 2 3 4 5 6 7 8 9 10 11 12 13 14 15 16 17 18 19 20 21 22 23 24 25 26 27 28 29 30 31 32 33 34 35 36 37 38 39 40 41 42 43 44 45 46 47 48 49 50
000
ASUS45 KTFX 242210
RWRMT
MONTANA REGIONAL WEATHER ROUNDUP
NATIONAL WEATHER SERVICE GREAT FALLS MT
300 PM MST FRI NOV 24 2017

NOTE: "FAIR" INDICATES FEW OR NO CLOUDS BELOW 12000 FEET WITH NO
SIGNIFICANT WEATHER AND/OR OBSTRUCTIONS TO VISIBILITY.

MTZ001>007-043-242300-
WEST OF THE DIVIDE

CITY           SKY/WX    TMP DP  RH WIND       PRES   REMARKS
KALISPELL      CLOUDY    45  28  51 SW12      30.01R
MISSOULA       PTSUNNY   45  26  47 W15       30.07R
BUTTE          FAIR      43  13  29 W14       30.01R
MULLAN PASS    SNOW      27  25  92 VRB6      30.00S VSB 1/4 WCI  20
ANACONDA         N/A     43  21  42 W16       30.00R
DEER LODGE       N/A     43  23  45 E3        30.02R
EUREKA           N/A     45  27  49 MISG      30.00R
HAMILTON         N/A     46  21  36 W5        30.06S
LIBBY            N/A     46  27  46 S6        30.02R
PLAINS           N/A     48  28  46 SW6       30.06R
$$

MTZ008-052>055-242300-
SOUTHWEST MONTANA

CITY           SKY/WX    TMP DP  RH WIND       PRES   REMARKS
BOZEMAN        FAIR      50  19  29 W10       29.97R
DILLON         FAIR      48  22  35 W13       29.98S
W YELLOWSTONE  PTSUNNY   41  28  60 W12G22    30.00F
ENNIS          MOSUNNY   48  23  37 SW12      30.03F
TWIN BRIDGES     N/A     49  16  27 S6        29.98R
$$

MTZ009-010-012-014-046-048-049-054-242300-
EAST SLOPES AND CENTRAL MONTANA

CITY           SKY/WX    TMP DP  RH WIND       PRES   REMARKS
CUT BANK       FAIR      40  25  55 W20G31    29.85R
GREAT FALLS    FAIR      43  20  39 SW23G37   29.90R
MALMSTROM AFB  FAIR      45  21  38 SW28G36   29.92R
HELENA         CLOUDY    49  25  39 VRB7      30.00R
BOWMANS CRNR   FAIR      41  22  46 SW28      29.90R
CHOTEAU          N/A     45  19  36 W12       29.90S
FAIRFIELD      FAIR      44  19  37 W16       29.89R
POWER          FAIR      40  22  47 SW8       29.88R
RAYNESFORD     FAIR      44  18  34 W30G40    29.92R
ULM            FAIR      44  20  39 SW33G39   29.92R
$$

MTZ011-013-016-021-045-047-050-051-242300-
NORTH CENTRAL MONTANA

CITY           SKY/WX    TMP DP  RH WIND       PRES   REMARKS
HAVRE          FAIR      51  25  36 W23G31    29.83R
LEWISTOWN      FAIR      46  20  35 NW17G29   29.88R
N BAR RANCH    FAIR      45  18  33 NW15      29.90R
CHINOOK          N/A     52  25  35 W20G28    29.82R
DENTON         FAIR      47  19  33 W22G28    29.86R
GEYSER         FAIR      45  19  34 W30G39    29.88R
GRASS RANGE    FAIR      47  17  30 W22       29.84R
STANFORD       FAIR      46  17  31 W15       29.89R
WINIFRED       FAIR      47  19  34 W20G28    29.87R
$$

MTZ017>020-022>027-061-062-242300-
NORTHEAST MONTANA

CITY           SKY/WX    TMP DP  RH WIND       PRES   REMARKS
GLASGOW        FAIR      49  27  42 W15G25    29.80R
GLENDIVE       FAIR      51  29  42 NW14      29.82R
JORDAN           N/A     50  23  34 NW20      29.84R
SIDNEY         FAIR      50  32  50 W10       29.79R
WOLF POINT     FAIR      51  32  48 W14       29.80R
MALTA          CLEAR     50  27  40 W18G25    29.82R
PLENTYWOOD       N/A     48  32  53 W14       29.73R
POPLAR           N/A     48  34  57 W16G22    29.79R
SCOBEY           N/A     47  30  51 SW14      29.77R
$$

MTZ028>42-056>058-242300-
SOUTHCENTRAL AND SOUTHEAST MONTANA

CITY           SKY/WX    TMP DP  RH WIND       PRES   REMARKS
BAKER          FAIR      49  31  49 W14       29.84R
BILLINGS       FAIR      53  22  29 N15       29.87R
LIVINGSTON     FAIR      49  26  41 W31G40    29.88R
MILES CITY     FAIR      52  27  38 NW14G24   29.86R
BIG TIMBER     SUNNY     50  21  32 W32       29.88F
FORSYTH          N/A     52  21  30 NW7       29.86S
HARLOWTON      FAIR      46  21  37 W28G36    29.89R
LAUREL           N/A     55  18  22 NW20G26   29.86S
ROUNDUP          N/A     51  15  24 SW18      29.80R
$$

REGIONAL REPORTS...DAKOTAS

CITY           SKY/WX    TMP DP  RH WIND       PRES   REMARKS
WILLISTON      FAIR      49  30  48 W13       29.75R
MINOT          FAIR      49  30  48 W22G35    29.68R
DICKINSON      FAIR      50  30  46 NW15      29.76R
BEACH          FAIR      46  28  49 W13       29.84R
CROSBY         FAIR      45  32  61 NW12      29.73R
TIOGA          FAIR      46  30  53 NW16G24   29.74R
WATFORD CITY   FAIR      48  32  53 W12G20    29.76R
BISMARCK       FAIR      54  33  45 NW14G26   29.73R
GRAND FORKS    FAIR      44  37  76 W10       29.55R
FARGO          FAIR      48  34  58 NW21G29   29.58R
BUFFALO SD       N/A     50  33  52 W18       29.78R
RAPID CITY     FAIR      53  24  32 NW21      29.88R
$$

REGIONAL REPORTS...WYOMING/IDAHO/WASHINGTON

CITY           SKY/WX    TMP DP  RH WIND       PRES   REMARKS
GILLETTE       FAIR      49  20  31 NW7       29.90R
SHERIDAN       FAIR      51  18  27 CALM      29.88F
BUFFALO WY     FAIR      47  13  25 N5        29.91R
CODY           FAIR      54  19  25 W16G28    29.89R
YELLOWSTONE LA   N/A     38  23  55 VRB6      30.04S
IDAHO FALLS    PTSUNNY   48  43  82 SW22G30   30.05R
SALMON         FAIR      51  27  39 NW6       30.03R
BOISE          FAIR      51  28  41 NW6       30.11S
SPOKANE        PTSUNNY   45  35  68 SW16G24   30.05F
$$

REGIONAL REPORTS...ALBERTA

CITY           SKY/WX    TMP DP  RH WIND       PRES   REMARKS
EDMONTON       CLEAR     37  27  65 SW6       29.69R
CALGARY        PTSUNNY   45  19  36 SW7       29.73R
LETHBRIDGE     PTSUNNY   46  25  42 W25G33    29.79R
MEDICINE HAT   PTCLDY    48  30  49 W14G21    29.76R
$$

REGIONAL REPORTS...SASKATCHEWAN

CITY           SKY/WX    TMP DP  RH WIND       PRES   REMARKS
SWIFT CURRENT  PTCLDY    41  30  65 W12G17    29.72R
REGINA         MOCLDY    36  32  87 W10       29.71R WCI  28
SASKATOON      MOCLDY    36  30  80 SW8       29.70R WCI  29
$$



USA.gov is the U.S. government's official web portal to all federal, state and local government web resources and services.